Rbgn^[z[y[W
メイン
   新天体発見情報
     Comet P/2019 S3 (PANSTARRS)
投稿するにはまず登録を

スレッド表示 | 新しいものから 前のトピック | 次のトピック | 下へ
投稿者 スレッド
佐藤裕久
投稿日時: 2019-10-23 16:29
モデレータ
登録日: 2005-6-12
居住地: 日本
投稿: 2020
オンライン
Comet P/2019 S3 (PANSTARRS)

R. Weryk、S. ChastelとR. Wainscoatの通報によると、9月25日UT、ハワイ Haleakalaの
Pan-STARRS1 1.8-m Ritchey-Chretien 反射望遠鏡で得た、3枚のw-バンド画像から他の
彗星を発見した。尾が西に向かって約8"伸びている(スタックイメージは彗星状のイメージ
に見え、FWHM (半値全幅)は近傍の恒星の1".7に対して約2".1であった)。
Werykは、8月27.6日に得たPan-STARRS2イメージ(測定した光度は21.5-21.6等)と9月7.6日
に得たPan-STARRS1イメージ(光度は19.6-20.0,等、また西に約8"の尾がある)から彗星状の
外観をもつ天体であると確認した。
小惑星センターのPCCP webpageに公表後、佐藤英貴氏(東京都文京区, iTelescope天文台,
9月26.6日UT、60秒露出16枚のスタック, 0.51-m f/6.8 アストログラフ, Siding Spring, 
NSW, 遠隔操作:弱い集光だが、3" x 8" のコマ(南向きに伸びている)があり、p.a. 160°
に向かって10"の尾がある、4".9の円形範囲で測定した光度は20.4等であった)ら
によって彗星状と観測された。

発見位置は次のとおり、

     2019 UT             R.A. (2000) Decl.       Mag.
     Aug. 27.55885    2 10 52.22   + 4 29 16.8   21.5
          27.57050    2 10 52.94   + 4 29 13.5   21.5
          27.58225    2 10 53.68   + 4 29 10.8   21.6
          27.59401    2 10 54.45   + 4 29 08.0   21.5
     Sept. 7.58129    2 21 22.27   + 3 30 29.4   19.6
           7.59327    2 21 22.78   + 3 30 24.9   19.8
           7.60959    2 21 23.43   + 3 30 18.6   20.0
          25.53553    2 29 40.03   + 1 08 07.1   20.7
          25.54826    2 29 40.09   + 1 08 00.4   20.8
          25.56101    2 29 40.15   + 1 07 53.4   20.7

MPCの楕円軌道要素と位置推算表は次のとおり、

Orbital elements:
    P/2019 S3 (PANSTARRS)                                                       
Epoch 2019 Aug. 25.0 TT = JDT 2458720.5                                         
T 2019 Aug. 26.07844 TT                                 Veres                   
q   1.8066638            (2000.0)            P               Q                  
n   0.15633610     Peri.  212.94296     +0.99542062     -0.05904281             
a   3.4126876      Node   150.16676     +0.07749008     +0.95890667             
e   0.4706038      Incl.    8.69175     -0.05597388     +0.27751026             
P   6.30                                                                        
From 45 observations 2019 Aug. 27-Oct. 4, mean residual 0".6.                   
                                                                                
    P/2019 S3 (PANSTARRS)                                                       
Epoch 2025 Dec. 31.0 TT = JDT 2461040.5                                         
T 2025 Dec. 18.65490 TT                                 Veres                   
q   1.8068935            (2000.0)            P               Q                  
n   0.15631086     Peri.  213.12784     +0.99528300     -0.06115366             
a   3.4130549      Node   150.10313     +0.07956649     +0.95870938             
e   0.4705935      Incl.    8.69047     -0.05550601     +0.27773467             
P   6.31                                                                        
From 45 observations 2019 Aug. 27-Oct. 4.                                       
                                                                                
    P/2019 S3 (PANSTARRS)                                                       
Epoch 2019 Apr. 27.0 TT = JDT 2458600.5                                         
T 2019 Aug. 26.06128 TT                                 Veres                   
q   1.8067103            (2000.0)            P               Q                  
n   0.15632271     Peri.  212.93421     +0.99542958     -0.05889379             
a   3.4128824      Node   150.16695     +0.07734616     +0.95891773             
e   0.4706204      Incl.    8.69160     -0.05601363     +0.27750371             
P   6.30                                                                        
From 45 observations 2019 Aug. 27-Oct. 4, mean residual 0".6.                   
                                                                                
Ephemeris:
Date    TT    R. A. (2000) Decl.     Delta      r    Elong.  Phase   m1
2019 09 04    02 18 22.9 +03 52 29   1.0146  1.8084   126.7    26.6  20.9
...
2019 09 19    02 27 58.6 +02 05 05   0.9387  1.8188   138.7    21.4  20.8
...
2019 09 27    02 29 50.3 +00 54 57   0.9109  1.8282   145.6    18.0  20.7
...
2019 10 03    02 29 46.5 +00 00 03   0.8970  1.8369   150.8    15.4  20.7
2019 10 04    02 29 39.1 -00 09 04   0.8953  1.8385   151.7    15.0  20.7
2019 10 05    02 29 30.0 -00 18 10   0.8938  1.8401   152.5    14.5  20.7
...
2019 10 11    02 28 00.3 -01 11 11   0.8887  1.8507   157.4    12.0  20.7
...
2019 10 19    02 24 46.0 -02 14 19   0.8929  1.8669   162.4     9.3  20.8
...
2019 11 03    02 17 00.2 -03 31 21   0.9367  1.9035   161.4     9.6  21.0

   This object was reported as cometary based on Pan-STARRS 1 (F51) discovery
images on Sept. 25 UTC by S. Chastel and R. Wainscoat. The object had FWHM of
2".1 in three stacked w-band images, which is larger than than of neighbouring
stars at 1".74 ± 0".08. The tail extended West for 8". Further confirmation
are mentioned in the table below:

OC  Date     Observer(s)     Coma              Tail                 Exp.
Q62 20190926 H. Sato         3x8", elongated   10", P.A. 160       16 x 60s
691 20190930 R. S. McMillan  9"                12", P.A. 272       10 x 120s
F51 20190930 R. Weryk        2"                tail West

(CBET 4674、MPEC 2019-T82)
※CBET 4674では、佐藤英貴氏の観測地をnear Mayhill, NM, USAと書いているが、
 Siding Spring, NSWの誤りであるので修正しています。

スレッド表示 | 新しいものから 前のトピック | 次のトピック | トップ

投稿するにはまず登録を
 
© 1999 Tsutomu Seki.